Location: Unspecified
(0.0000°N, 0.0000°E)
Time: 01:37:35
(UTC+00:00)

Vanguard 2 Rocket - All Passes

Search period start: 20 February 2017 00:00
Search period end: 02 March 2017 00:00
Orbit: 553 x 3328 km, 32.9° (Epoch: 18 February)

Date Brightness Start Highest point End Pass type
(mag) Time Alt. Az. Time Alt. Az. Time Alt. Az.
20 Feb - 03:05:05 10° S 03:08:00 11° SSE 03:11:12 10° SE visible
20 Feb - 05:14:22 10° SSW 05:27:48 34° SSE 05:44:54 10° E visible
20 Feb - 07:28:15 10° SW 07:46:57 78° SE 08:06:30 10° ENE daylight
20 Feb - 09:46:47 10° WSW 10:06:04 50° NW 10:21:52 10° NE daylight
20 Feb - 12:14:29 10° WNW 12:25:12 18° NNW 12:33:38 10° N daylight
20 Feb - 19:14:30 10° NNW 19:18:33 32° NNE 19:22:07 10° E visible
20 Feb - 21:28:36 10° WSW 21:31:28 19° SSW 21:34:44 10° SSE night (unlit)
21 Feb - 04:15:32 10° SSW 04:25:54 24° SSE 04:39:28 10° ESE visible
21 Feb - 06:27:58 10° SW 06:44:43 61° SE 07:04:37 10° ENE daylight
21 Feb - 08:44:18 10° WSW 09:03:51 65° NW 09:21:52 10° NE daylight
21 Feb - 11:08:00 10° W 11:23:12 27° NNW 11:35:08 10° NNE daylight
21 Feb - 18:15:38 10° NNW 18:19:13 18° NNE 18:22:11 10° ENE daylight
21 Feb - 20:28:33 10° WNW 20:32:17 37° SW 20:36:08 10° SE visible
22 Feb - 03:17:42 10° S 03:24:11 15° SSE 03:32:15 10° ESE visible
22 Feb - 05:28:20 10° SSW 05:42:44 46° SE 06:01:37 10° ENE visible
22 Feb - 07:42:53 10° WSW 08:01:31 82° NW 08:21:13 10° NE daylight
22 Feb - 10:03:14 10° W 10:21:01 37° NNW 10:35:53 10° NNE daylight
22 Feb - 12:34:21 10° NW 12:41:23 13° NNW 12:47:19 10° N daylight
22 Feb - 17:16:53 10° N 17:19:26 13° NNE 17:21:37 10° NE daylight
22 Feb - 19:28:49 10° NW 19:33:23 89° SW 19:37:18 10° SE visible
23 Feb - 04:29:19 10° SSW 04:41:06 33° SE 04:57:19 10° E visible
23 Feb - 06:42:19 10° SW 06:59:16 80° SE 07:19:46 10° ENE daylight
23 Feb - 08:59:58 10° WSW 09:18:39 49° NW 09:36:01 10° NE daylight
23 Feb - 11:26:37 10° WNW 11:39:01 20° NNW 11:49:06 10° NNE daylight
23 Feb - 18:29:13 10° NW 18:34:21 42° NNE 18:38:12 10° ESE visible
23 Feb - 20:44:50 10° WSW 20:47:09 15° SSW 20:49:31 10° S visible
24 Feb - 03:31:01 10° SSW 03:39:45 22° SE 03:51:35 10° ESE visible
24 Feb - 05:42:28 10° SW 05:57:20 62° SE 06:17:25 10° ENE visible
24 Feb - 07:57:59 10° WSW 08:16:12 63° NW 08:35:33 10° NE daylight
24 Feb - 10:20:41 10° W 10:36:28 28° NNW 10:49:53 10° NNE daylight
24 Feb - 12:54:16 10° NNW 12:58:06 11° NNW 13:01:32 10° N daylight
24 Feb - 17:29:32 10° NNW 17:34:54 25° NNE 17:38:46 10° E daylight
24 Feb - 19:44:01 10° W 19:48:04 32° SW 19:51:38 10° SSE visible
25 Feb - 02:34:14 10° S 02:38:35 13° SSE 02:43:48 10° SE visible
25 Feb - 04:43:14 10° SSW 04:55:49 45° SE 05:14:02 10° ENE visible
25 Feb - 06:57:00 10° WSW 07:13:52 80° NW 07:34:24 10° NE daylight
25 Feb - 09:16:26 10° W 09:33:50 37° NNW 09:50:03 10° NNE daylight
25 Feb - 11:45:58 10° NW 11:55:28 16° NNW 12:03:26 10° NNE daylight
25 Feb - 16:29:38 10° NNW 16:34:59 19° NNE 16:38:55 10° ENE daylight
25 Feb - 18:43:41 10° WNW 18:49:11 76° SW 18:53:12 10° SE visible
26 Feb - 03:44:37 10° SSW 03:54:44 31° SE 04:09:29 10° E visible
26 Feb - 05:56:51 10° SW 06:11:50 82° SE 06:32:31 10° ENE daylight
26 Feb - 08:13:41 10° W 08:31:11 48° NNW 08:49:40 10° NE daylight
26 Feb - 10:39:07 10° WNW 10:52:34 21° NNW 11:04:06 10° NNE daylight
26 Feb - 13:11:27 10° NNW 13:15:02 11° N 13:18:15 10° N daylight
26 Feb - 15:29:16 10° NNW 15:34:33 15° NNE 15:38:36 10° NE daylight
26 Feb - 17:43:24 10° NW 17:50:04 54° NNE 17:54:25 10° ESE daylight
26 Feb - 20:00:39 10° WSW 20:02:46 13° SW 20:04:44 10° S visible
27 Feb - 02:46:50 10° S 02:53:56 19° SE 03:03:37 10° ESE visible
27 Feb - 04:57:22 10° SW 05:10:17 63° SE 05:29:49 10° ENE visible
27 Feb - 07:12:09 10° WSW 07:28:39 61° NW 07:48:42 10° NE daylight
27 Feb - 09:33:50 10° WNW 09:49:33 28° NNW 10:04:10 10° NNE daylight
27 Feb - 12:04:50 10° NW 12:12:24 14° N 12:18:50 10° NNE daylight
27 Feb - 14:28:07 10° NNW 14:33:33 14° N 14:37:54 10° NE daylight
27 Feb - 16:43:00 10° NW 16:50:29 34° NNE 16:55:16 10° E daylight
27 Feb - 18:59:01 10° W 19:03:47 30° SW 19:07:25 10° SSE visible
28 Feb - 03:58:29 10° SSW 04:09:17 45° SE 04:26:11 10° ENE visible
28 Feb - 06:11:36 10° WSW 06:26:28 77° NW 06:47:06 10° NE daylight
28 Feb - 08:30:10 10° W 08:46:35 36° NNW 09:03:43 10° NNE daylight
28 Feb - 10:58:04 10° NW 11:09:17 17° NNW 11:18:55 10° NNE daylight
28 Feb - 13:25:42 10° NNW 13:31:52 13° N 13:36:56 10° NNE daylight
28 Feb - 15:42:18 10° NNW 15:50:23 26° NNE 15:55:42 10° ENE daylight
28 Feb - 17:58:02 10° WNW 18:04:52 68° SW 18:09:15 10° SE daylight
01 Mar - 03:00:14 10° SSW 03:08:44 29° SE 03:21:35 10° E visible
01 Mar - 05:11:48 10° SW 05:24:46 84° SE 05:44:51 10° NE visible
01 Mar - 07:27:56 10° W 07:43:49 46° NNW 08:02:47 10° NE daylight
01 Mar - 09:52:06 10° WNW 10:05:55 22° NNW 10:18:37 10° NNE daylight
01 Mar - 12:21:42 10° NNW 12:29:28 14° N 12:35:55 10° NNE daylight
01 Mar - 14:41:08 10° NNW 14:49:42 21° NNE 14:55:39 10° ENE daylight
01 Mar - 16:57:05 10° NW 17:05:37 67° NNE 17:10:39 10° ESE daylight
01 Mar - 19:15:48 10° WSW 19:18:17 13° SW 19:20:29 10° S visible
